DNO789 LCLK-LLBG

Flight info

Callsign DNO789
Flight time 0h 41m
Altitude 25000
Route EMEDA DCT TUZIB L189 ZUKKO
Aircraft A320/M-SDE3FGHIRWY/LB1

Departure

Time 2026-05-07 13:17
Airport Larnaca International Airport (LCLK)

Arrival

Time 2026-05-07 13:59
Airport Ben Gurion International Airport (LLBG)
Time Latitude Longitude Altitude Speed Heading
2026-05-07 12:59 34.86909 33.60897 22 ft 0 kts 46°
2026-05-07 13:03 34.86908 33.60897 20 ft 0 kts 46°
2026-05-07 13:07 34.86892 33.60876 47 ft 4 kts 46°
2026-05-07 13:07 34.86874 33.60853 22 ft 4 kts 50°
2026-05-07 13:07 34.86861 33.60826 24 ft 4 kts 87°
2026-05-07 13:08 34.86867 33.60800 23 ft 2 kts 135°
2026-05-07 13:08 34.86868 33.60799 20 ft 0 kts 135°
2026-05-07 13:10 34.86868 33.60800 20 ft 1 kts 135°
2026-05-07 13:10 34.86849 33.60823 21 ft 6 kts 134°
2026-05-07 13:10 34.86806 33.60874 20 ft 11 kts 135°
2026-05-07 13:11 34.86710 33.60989 20 ft 23 kts 135°
2026-05-07 13:11 34.86655 33.61147 22 ft 22 kts 56°
2026-05-07 13:11 34.86772 33.61295 20 ft 30 kts 45°
2026-05-07 13:11 34.86920 33.61477 20 ft 23 kts 44°
2026-05-07 13:12 34.87039 33.61621 22 ft 25 kts 46°
2026-05-07 13:12 34.87163 33.61775 20 ft 27 kts 45°
2026-05-07 13:12 34.87296 33.61938 22 ft 28 kts 47°
2026-05-07 13:12 34.87392 33.62054 20 ft 19 kts 44°
2026-05-07 13:13 34.87493 33.62178 20 ft 24 kts 46°
2026-05-07 13:13 34.87617 33.62328 20 ft 21 kts 45°
2026-05-07 13:13 34.87727 33.62463 22 ft 23 kts 45°
2026-05-07 13:13 34.87846 33.62609 20 ft 25 kts 45°
2026-05-07 13:14 34.87975 33.62765 20 ft 27 kts 45°
2026-05-07 13:14 34.88099 33.62917 20 ft 24 kts 45°
2026-05-07 13:14 34.88224 33.63071 21 ft 26 kts 45°
2026-05-07 13:14 34.88338 33.63211 20 ft 19 kts 45°
2026-05-07 13:15 34.88434 33.63333 21 ft 20 kts 54°
2026-05-07 13:15 34.88421 33.63410 21 ft 10 kts 133°
2026-05-07 13:15 34.88370 33.63474 21 ft 12 kts 136°
2026-05-07 13:15 34.88286 33.63501 20 ft 15 kts 205°
2026-05-07 13:16 34.88266 33.63484 19 ft 0 kts 220°
2026-05-07 13:16 34.88263 33.63481 19 ft 3 kts 224°
2026-05-07 13:16 34.88094 33.63275 20 ft 69 kts 225°
2026-05-07 13:16 34.87618 33.62693 22 ft 123 kts 225°
2026-05-07 13:17 34.86908 33.61834 110 ft 156 kts 221°
2026-05-07 13:17 34.86132 33.60902 628 ft 159 kts 224°
2026-05-07 13:17 34.85349 33.59949 1207 ft 159 kts 223°
2026-05-07 13:17 34.84558 33.58994 1759 ft 162 kts 218°
2026-05-07 13:18 34.83500 33.58452 1960 ft 179 kts 179°
2026-05-07 13:18 34.82209 33.58746 2142 ft 200 kts 163°
2026-05-07 13:18 34.80785 33.59209 2370 ft 222 kts 163°
2026-05-07 13:18 34.79218 33.59721 2658 ft 245 kts 164°
2026-05-07 13:19 34.77489 33.60283 3143 ft 264 kts 164°
2026-05-07 13:19 34.75708 33.60858 3868 ft 272 kts 164°
2026-05-07 13:19 34.73855 33.61452 4652 ft 279 kts 164°
2026-05-07 13:19 34.71953 33.62057 5429 ft 285 kts 164°
2026-05-07 13:20 34.70024 33.62671 6243 ft 289 kts 165°
2026-05-07 13:20 34.68064 33.63294 7024 ft 292 kts 165°
2026-05-07 13:20 34.66080 33.63921 7808 ft 295 kts 165°
2026-05-07 13:20 34.64083 33.64552 8623 ft 297 kts 165°
2026-05-07 13:21 34.62098 33.65181 9420 ft 299 kts 164°
2026-05-07 13:21 34.60071 33.65826 10193 ft 302 kts 164°
2026-05-07 13:21 34.57979 33.66492 10509 ft 322 kts 164°
2026-05-07 13:21 34.55733 33.67209 10647 ft 344 kts 164°
2026-05-07 13:22 34.53363 33.67963 11051 ft 356 kts 165°
2026-05-07 13:22 34.50948 33.68728 11655 ft 361 kts 165°
2026-05-07 13:22 34.48530 33.69493 12306 ft 364 kts 166°
2026-05-07 13:22 34.46070 33.70270 12933 ft 368 kts 166°
2026-05-07 13:23 34.43581 33.71056 13541 ft 372 kts 166°
2026-05-07 13:23 34.41053 33.71855 14117 ft 376 kts 166°
2026-05-07 13:23 34.38498 33.72667 14651 ft 380 kts 166°
2026-05-07 13:23 34.35927 33.73480 15163 ft 384 kts 167°
2026-05-07 13:24 34.33318 33.74299 15682 ft 389 kts 167°
2026-05-07 13:24 34.30677 33.75126 16184 ft 393 kts 167°
2026-05-07 13:24 34.28056 33.75949 16685 ft 397 kts 167°
2026-05-07 13:24 34.25371 33.76794 17204 ft 401 kts 167°
2026-05-07 13:25 34.22660 33.77648 17729 ft 405 kts 167°
2026-05-07 13:25 34.19920 33.78512 18254 ft 409 kts 168°
2026-05-07 13:25 34.17154 33.79383 18745 ft 413 kts 168°
2026-05-07 13:25 34.14356 33.80266 19236 ft 417 kts 168°
2026-05-07 13:26 34.11537 33.81154 19740 ft 420 kts 168°
2026-05-07 13:26 34.08701 33.82045 20243 ft 423 kts 168°
2026-05-07 13:26 34.06805 33.82640 20573 ft 426 kts 168°
2026-05-07 13:26 34.03917 33.83523 21059 ft 428 kts 171°
2026-05-07 13:27 34.00966 33.83993 21537 ft 427 kts 180°
2026-05-07 13:27 33.97016 33.84295 22178 ft 431 kts 180°
2026-05-07 13:27 33.94983 33.84452 22463 ft 433 kts 180°
2026-05-07 13:27 33.91961 33.84679 22898 ft 436 kts 180°
2026-05-07 13:28 33.88946 33.84902 23324 ft 440 kts 180°
2026-05-07 13:28 33.85872 33.85129 23738 ft 443 kts 180°
2026-05-07 13:28 33.82776 33.85357 24099 ft 445 kts 180°
2026-05-07 13:28 33.79712 33.85585 24463 ft 447 kts 180°
2026-05-07 13:29 33.76596 33.85824 24839 ft 449 kts 180°
2026-05-07 13:29 33.73477 33.86068 25054 ft 449 kts 180°
2026-05-07 13:29 33.70353 33.86318 25096 ft 449 kts 180°
2026-05-07 13:29 33.67222 33.86572 25101 ft 449 kts 180°
2026-05-07 13:30 33.64100 33.86822 25112 ft 449 kts 180°
2026-05-07 13:30 33.60972 33.87069 25115 ft 449 kts 180°
2026-05-07 13:30 33.57891 33.87307 25103 ft 449 kts 180°
2026-05-07 13:30 33.54768 33.87546 25112 ft 449 kts 180°
2026-05-07 13:31 33.51632 33.87788 25109 ft 449 kts 180°
2026-05-07 13:31 33.48515 33.88029 25109 ft 449 kts 180°
2026-05-07 13:31 33.45436 33.88266 25109 ft 449 kts 180°
2026-05-07 13:31 33.42307 33.88506 25109 ft 449 kts 180°
2026-05-07 13:32 33.39188 33.88744 25108 ft 449 kts 180°
2026-05-07 13:32 33.36062 33.88981 25109 ft 449 kts 180°
2026-05-07 13:32 33.32973 33.89218 25110 ft 449 kts 180°
2026-05-07 13:32 33.29850 33.89461 25111 ft 449 kts 180°
2026-05-07 13:33 33.26749 33.89708 24938 ft 441 kts 180°
2026-05-07 13:33 33.23681 33.89952 24702 ft 447 kts 180°
2026-05-07 13:33 33.20496 33.90193 24462 ft 466 kts 180°
2026-05-07 13:33 33.17187 33.90434 23956 ft 489 kts 180°
2026-05-07 13:34 33.13761 33.90677 23354 ft 504 kts 180°
2026-05-07 13:34 33.06758 33.91193 22241 ft 500 kts 179°
2026-05-07 13:34 33.03287 33.91458 21722 ft 495 kts 179°
2026-05-07 13:35 32.99875 33.91720 21038 ft 489 kts 179°
2026-05-07 13:35 32.96481 33.91975 20586 ft 490 kts 179°
2026-05-07 13:35 32.93083 33.92225 20000 ft 488 kts 179°
2026-05-07 13:35 32.89754 33.92468 19171 ft 482 kts 179°
2026-05-07 13:36 32.86405 33.92714 18478 ft 474 kts 178°
2026-05-07 13:36 32.83129 33.92953 17561 ft 468 kts 178°
2026-05-07 13:36 32.79880 33.93190 16630 ft 464 kts 178°
2026-05-07 13:36 32.76756 33.93420 16403 ft 444 kts 178°
2026-05-07 13:37 32.73737 33.93644 16287 ft 426 kts 178°
2026-05-07 13:37 32.70827 33.93858 16158 ft 410 kts 178°
2026-05-07 13:37 32.68012 33.94061 15967 ft 397 kts 179°
2026-05-07 13:37 32.65279 33.94255 15511 ft 392 kts 179°
2026-05-07 13:38 32.62621 33.94547 15146 ft 386 kts 170°
2026-05-07 13:38 32.60116 33.95582 14906 ft 378 kts 153°
2026-05-07 13:38 32.58014 33.97396 14665 ft 371 kts 136°
2026-05-07 13:38 32.56453 33.99816 14433 ft 369 kts 122°
2026-05-07 13:39 32.55098 34.02396 14195 ft 366 kts 122°
2026-05-07 13:39 32.53753 34.04954 13963 ft 365 kts 123°
2026-05-07 13:39 32.52423 34.07474 13713 ft 364 kts 123°
2026-05-07 13:39 32.51076 34.10025 13452 ft 363 kts 123°
2026-05-07 13:40 32.49738 34.12560 13186 ft 361 kts 123°
2026-05-07 13:40 32.48410 34.15079 12934 ft 357 kts 123°
2026-05-07 13:40 32.47091 34.17579 12679 ft 358 kts 123°
2026-05-07 13:40 32.45792 34.20043 12430 ft 358 kts 123°
2026-05-07 13:41 32.44471 34.22548 12171 ft 356 kts 123°
2026-05-07 13:41 32.43162 34.25026 11806 ft 351 kts 123°
2026-05-07 13:41 32.41874 34.27463 11447 ft 346 kts 123°
2026-05-07 13:41 32.40612 34.29842 11027 ft 345 kts 123°
2026-05-07 13:42 32.39332 34.32247 10602 ft 342 kts 123°
2026-05-07 13:42 32.38061 34.34634 10205 ft 340 kts 123°
2026-05-07 13:42 32.36824 34.36961 9820 ft 337 kts 123°
2026-05-07 13:42 32.35582 34.39299 9441 ft 333 kts 123°
2026-05-07 13:43 32.34354 34.41608 9054 ft 330 kts 123°
2026-05-07 13:43 32.33144 34.43883 8872 ft 320 kts 122°
2026-05-07 13:43 32.31990 34.46053 8740 ft 309 kts 122°
2026-05-07 13:43 32.30860 34.48176 8605 ft 299 kts 123°
2026-05-07 13:44 32.29763 34.50242 8393 ft 294 kts 122°
2026-05-07 13:44 32.28693 34.52256 8070 ft 292 kts 122°
2026-05-07 13:44 32.27614 34.54288 7742 ft 291 kts 123°
2026-05-07 13:44 32.26534 34.56313 7409 ft 290 kts 123°
2026-05-07 13:45 32.25462 34.58320 7131 ft 287 kts 123°
2026-05-07 13:45 32.24396 34.60316 6841 ft 285 kts 122°
2026-05-07 13:45 32.23339 34.62300 6583 ft 282 kts 122°
2026-05-07 13:45 32.22313 34.64246 6449 ft 283 kts 122°
2026-05-07 13:46 32.21275 34.66229 6330 ft 284 kts 122°
2026-05-07 13:46 32.20233 34.68220 6210 ft 283 kts 122°
2026-05-07 13:46 32.19201 34.70196 6068 ft 282 kts 121°
2026-05-07 13:46 32.18176 34.72159 5951 ft 280 kts 121°
2026-05-07 13:47 32.17164 34.74096 5819 ft 280 kts 122°
2026-05-07 13:47 32.16139 34.76054 5688 ft 279 kts 123°
2026-05-07 13:47 32.15120 34.77993 5575 ft 278 kts 123°
2026-05-07 13:47 32.14100 34.79932 5445 ft 276 kts 123°
2026-05-07 13:48 32.13102 34.81830 5322 ft 267 kts 122°
2026-05-07 13:48 32.12148 34.83647 5196 ft 259 kts 122°
2026-05-07 13:48 32.11211 34.85431 5071 ft 250 kts 122°
2026-05-07 13:48 32.10306 34.87147 4949 ft 244 kts 122°
2026-05-07 13:49 32.09421 34.88825 4823 ft 242 kts 122°
2026-05-07 13:49 32.08534 34.90510 4697 ft 241 kts 122°
2026-05-07 13:49 32.07647 34.92192 4570 ft 240 kts 122°
2026-05-07 13:49 32.06745 34.93820 4442 ft 239 kts 130°
2026-05-07 13:50 32.05597 34.95251 4318 ft 240 kts 134°
2026-05-07 13:50 32.04437 34.96668 4191 ft 239 kts 133°
2026-05-07 13:50 32.03280 34.98087 4066 ft 240 kts 133°
2026-05-07 13:50 32.02122 34.99505 3942 ft 239 kts 133°
2026-05-07 13:51 32.00971 35.00913 4002 ft 245 kts 133°
2026-05-07 13:51 31.99765 35.02386 4017 ft 260 kts 134°
2026-05-07 13:51 31.98488 35.03943 4003 ft 260 kts 134°
2026-05-07 13:51 31.97275 35.05417 4003 ft 248 kts 133°
2026-05-07 13:52 31.96072 35.06880 4013 ft 243 kts 134°
2026-05-07 13:52 31.94928 35.08273 3998 ft 229 kts 133°
2026-05-07 13:52 31.93850 35.09585 4001 ft 218 kts 133°
2026-05-07 13:52 31.92672 35.10661 4034 ft 208 kts 161°
2026-05-07 13:53 31.91334 35.10698 3989 ft 188 kts 206°
2026-05-07 13:53 31.90426 35.09784 3964 ft 165 kts 247°
2026-05-07 13:53 31.90206 35.08545 3914 ft 150 kts 282°
2026-05-07 13:53 31.90589 35.07455 3798 ft 143 kts 309°
2026-05-07 13:54 31.91148 35.06500 3625 ft 144 kts 304°
2026-05-07 13:54 31.91653 35.05473 3432 ft 145 kts 303°
2026-05-07 13:54 31.92170 35.04454 3238 ft 144 kts 304°
2026-05-07 13:54 31.92687 35.03448 3020 ft 143 kts 304°
2026-05-07 13:55 31.93198 35.02464 2831 ft 142 kts 306°
2026-05-07 13:55 31.93715 35.01472 2631 ft 142 kts 306°
2026-05-07 13:55 31.94235 35.00475 2433 ft 142 kts 307°
2026-05-07 13:55 31.94751 34.99485 2235 ft 141 kts 306°
2026-05-07 13:56 31.95256 34.98517 2028 ft 139 kts 308°
2026-05-07 13:56 31.95763 34.97544 1830 ft 138 kts 308°
2026-05-07 13:56 31.96264 34.96585 1629 ft 137 kts 310°
2026-05-07 13:56 31.96754 34.95628 1440 ft 136 kts 307°
2026-05-07 13:57 31.97245 34.94691 1240 ft 135 kts 309°
2026-05-07 13:57 31.97748 34.93756 1013 ft 135 kts 308°
2026-05-07 13:57 31.98236 34.92813 873 ft 134 kts 306°
2026-05-07 13:57 31.98723 34.91869 691 ft 134 kts 307°
2026-05-07 13:58 31.99215 34.90942 453 ft 135 kts 306°
2026-05-07 13:58 31.99690 34.89997 290 ft 134 kts 310°
2026-05-07 13:58 32.00184 34.89069 124 ft 126 kts 307°
2026-05-07 13:58 32.00580 34.88315 118 ft 86 kts 301°
2026-05-07 13:59 32.00723 34.88004 119 ft 6 kts 227°
2026-05-07 13:59 32.00675 34.87975 119 ft 9 kts 207°
2026-05-07 13:59 32.00615 34.87938 119 ft 7 kts 208°
2026-05-07 13:59 32.00614 34.87937 120 ft 0 kts 208°
2026-05-07 14:00 32.00601 34.87930 118 ft 8 kts 203°
2026-05-07 14:01 32.00582 34.87923 117 ft 2 kts 205°
2026-05-07 14:01 32.00568 34.87916 120 ft 2 kts 181°
2026-05-07 14:01 32.00558 34.87915 118 ft 2 kts 209°
2026-05-07 14:01 32.00532 34.87881 119 ft 9 kts 214°
2026-05-07 14:02 32.00476 34.87913 120 ft 11 kts 125°
2026-05-07 14:02 32.00444 34.87919 117 ft 6 kts 220°
2026-05-07 14:02 32.00395 34.87880 117 ft 13 kts 212°
2026-05-07 14:02 32.00314 34.87823 120 ft 14 kts 212°
2026-05-07 14:03 32.00223 34.87756 117 ft 16 kts 213°
2026-05-07 14:03 32.00173 34.87735 120 ft 2 kts 148°
2026-05-07 14:03 32.00156 34.87760 117 ft 6 kts 122°
2026-05-07 14:03 32.00134 34.87807 120 ft 6 kts 118°
2026-05-07 14:04 32.00133 34.87809 120 ft 0 kts 118°